Weather History for Minneapolis Crystal, MN

Change the Weather History Date:

Friday, March 22, 2013

  Actual Average Record
Temperature  
Mean Temperature 21 °F -  
Max Temperature 35 °F 41 °F 68 °F (2012)
Min Temperature 7 °F 24 °F 7 °F (2013)
Degree Days  
Heating Degree Days 44    
Moisture  
Dew Point 9 °F    
Average Humidity 60    
Maximum Humidity 92    
Minimum Humidity 37    
Precipitation  
Precipitation 0.00 in - - ()
Sea Level Pressure  
Sea Level Pressure 30.10 in    
Wind  
Wind Speed 1 mph (WNW)    
Max Wind Speed 6 mph    
Max Gust Speed -    
Visibility 10 miles    
Events      
Averages and records for this station are not official NWS values.
T = Trace of Precipitation, MM = Missing Value Source: NWS Daily Summary

Daily Weather History Graph

Daily Weather History Graph

Search for Another Location

Airport:

Trip Planner

Search our weather history database for the weather conditions in past years. The results will help you decide how hot, cold, wet, or windy it might be!

Date:

Astronomy

Mar. 22, 2013 Rise Set
Actual Time 7:12 AM CDT 7:28 PM CDT
Civil Twilight 6:42 AM CDT 7:58 PM CDT
Nautical Twilight 6:08 AM CDT 8:32 PM CDT
Astronomical Twilight 5:32 AM CDT 9:08 PM CDT
Moon 2:46 PM CDT (3/22) 4:24 AM CDT (3/22)
Length of Visible Light 13h 15m
Length of Day
12h 16m
Waxing Gibbous, 77% of the Moon is Illuminated
Mar 22
Waxing Gibbous
Mar 27
Full
Apr 2
Last Quarter
Apr 10
New
Apr 18
First Quarter

Hourly Weather History & Observations

Time (CDT) Temp. Windchill Dew Point Humidity Pressure Visibility Wind Dir Wind Speed Gust Speed Precip Events Conditions
12:53 AM 15.1 °F - 6.1 °F 68% 30.12 in 10.0 mi Calm Calm - N/A   Clear
1:53 AM 14.0 °F 8.2 °F 5.0 °F 67% 30.13 in 10.0 mi WNW 3.5 mph - N/A   Clear
2:53 AM 12.9 °F - 5.0 °F 71% 30.13 in 10.0 mi Calm Calm - N/A   Clear
3:53 AM 12.9 °F - 5.0 °F 71% 30.12 in 10.0 mi Calm Calm - N/A   Clear
4:53 AM 9.0 °F - 3.0 °F 77% 30.11 in 10.0 mi Calm Calm - N/A   Clear
5:53 AM 8.1 °F - 3.9 °F 83% 30.10 in 10.0 mi Calm Calm - N/A   Clear
6:53 AM 10.9 °F - 3.9 °F 73% 30.11 in 10.0 mi Calm Calm - N/A   Clear
7:53 AM 7.0 °F - 5.0 °F 92% 30.12 in 9.0 mi Calm Calm - N/A   Clear
8:53 AM 14.0 °F - 6.1 °F 71% 30.12 in 10.0 mi Calm Calm - N/A   Clear
9:53 AM 19.0 °F - 7.0 °F 59% 30.12 in 10.0 mi Calm Calm - N/A   Clear
11:53 AM 28.0 °F - 10.0 °F 47% 30.10 in 10.0 mi Calm Calm - N/A   Clear
12:53 PM 32.0 °F 28.7 °F 10.0 °F 40% 30.08 in 10.0 mi NNW 3.5 mph - N/A   Clear
1:53 PM 30.9 °F - 10.0 °F 42% 30.07 in 10.0 mi Calm Calm - N/A   Clear
2:53 PM 32.0 °F - 10.0 °F 40% 30.07 in 10.0 mi Calm Calm - N/A   Clear
3:53 PM 35.1 °F 31.0 °F 10.9 °F 37% 30.06 in 10.0 mi NNW 4.6 mph - N/A   Clear
4:53 PM 35.1 °F - 12.0 °F 39% 30.07 in 10.0 mi Calm Calm - N/A   Clear
6:53 PM 30.9 °F 25.2 °F 12.9 °F 47% 30.08 in 10.0 mi NW 5.8 mph - N/A   Clear
7:53 PM 30.0 °F 26.5 °F 14.0 °F 51% 30.09 in 10.0 mi NW 3.5 mph - N/A   Clear
8:53 PM 28.9 °F 22.8 °F 14.0 °F 54% 30.10 in 10.0 mi West 5.8 mph - N/A   Clear
9:53 PM 27.0 °F 20.5 °F 14.0 °F 58% 30.12 in 10.0 mi West 5.8 mph - N/A   Clear
10:53 PM 26.1 °F 21.9 °F 14.0 °F 60% 30.12 in 10.0 mi WSW 3.5 mph - N/A   Clear
11:53 PM 26.1 °F 21.9 °F 15.1 °F 63% 30.13 in 10.0 mi WNW 3.5 mph - N/A   Clear